HUBBLE
1 20580U 90037B 10154.88214637 .00000521 00000-0 27104-4 0 5772
2 20580 028.4705 326.7173 0003203 058.4260 301.6674 15.00981809902756
ISS
1 25544U 98067A 10154.85504495 .00026110 00000-0 17356-3 0 2764
2 25544 051.6470 298.8802 0008978 020.7547 115.2118 15.75210843661377
CO-58
1 28895U 05043F 10153.72540184 .00000366 00000-0 85768-4 0 5983
2 28895 098.0178 038.6815 0017140 334.4331 025.6088 14.59897271244879
FALCON
1 30776U 07006E 10153.93928190 .00000756 00000-0 57128-4 0 08531
2 30776 035.4318 130.7933 0000835 014.2228 345.8519 15.03673458177912
MAST
1 31126U 07012K 10153.55970370 .00000316 00000-0 82086-4 0 08817
2 31126 097.9374 196.3264 0093192 271.5428 087.5109 14.53591305165938
CAPE1
1 31130U 07012P 10153.80389816 .00000117 00000-0 37910-4 0 9006
2 31130 097.9370 193.9970 0100601 278.7842 080.1912 14.52181808165572
COMPASS
1 32787U 08021E 10153.31364727 .00000424 00000-0 60205-4 0 06883
2 32787 097.8943 218.2744 0015389 338.6069 021.4427 14.81877423113299
AAUSAT2
1 32788U 08021F 10153.18310769 .00000277 00000-0 41490-4 0 06810
2 32788 097.8952 218.2699 0014948 340.6195 019.4440 14.82019034113280
DO-64
1 32789U 08021G 10153.86855342 .00000748 00000-0 10045-3 0 07003
2 32789 097.9013 219.4031 0014862 336.1761 023.8735 14.82157597113381
CO-66
1 32791U 08021J 10153.19834802 .00000373 00000-0 54005-4 0 06817
2 32791 097.8957 218.1780 0015802 337.0570 022.9951 14.81662047113234
RS-30
1 32953U 08025A 10154.76809017 .00000010 00000-0 00000 0 0 7512
2 32953 082.5028 038.0245 0019460 128.6420 231.6405 12.43005225 92077
TACSAT-3
1 35001U 09028A 10153.86068932 .00007139 00000-0 16903-3 0 3019
2 35001 040.4543 300.1598 0021761 262.2997 097.5347 15.41717730 58421
PHARMSAT
1 35002U 09028B 10153.75461519 .00006165 00000-0 14377-3 0 2858
2 35002 040.4691 298.8516 0025511 262.0627 097.7292 15.42251437 58423
HAWKSAT1
1 35003U 09028C 10154.72621145 .00012410 00000-0 25643-3 0 3062
2 35003 040.4575 288.2012 0023055 283.9815 075.8440 15.45274976 58632
CP6
1 35004U 09028D 10154.73025951 .00014424 00000-0 28930-3 0 3022
2 35004 040.4644 287.3610 0022214 283.1378 076.6961 15.46071835 58633
AEROCUB3
1 35005U 09028E 10154.76306246 .00041993 00000-0 70273-3 0 3348
2 35005 040.4708 285.2867 0019431 290.1044 069.7683 15.50858624 58662
DRAGNSAT
1 35690U 09038B 10076.22711312 .05715194 12509-4 31481-3 0 3162
2 35690 051.6170 315.4586 0004999 310.9891 057.3269 16.42150010 36561
POLLUX
1 35693U 09038E 10087.99866888 .23496735 12787-4 17715-3 0 3529
2 35693 051.6099 254.5746 0006270 294.4866 097.5899 16.52338462 38395
CASTOR
1 35694U 09038F 10154.79145001 .00077248 13908-4 14728-3 0 4336
2 35694 051.6390 271.7726 0000622 212.6789 147.4146 16.00688054 48917
METEOR-M
1 35865U 09049A 10154.69329210 .00000176 00000-0 10000-3 0 3501
2 35865 098.7593 208.5881 0003407 051.5432 308.5993 14.21830343 36809
RS-38
1 35869U 09049E 10154.73660348 .00000177 00000-0 10000-3 0 3589
2 35869 098.7589 208.6633 0005484 048.4254 311.7356 14.21982517 36819
